Regional Weather Roundup
Issued by NWS

Home | Current Version | Previous Version | Graphics & Text | Print | Product List | Glossary On
Versions: 1 2 3 4 5 6 7 8 9 10 11 12 13 14 15 16 17 18 19 20 21 22 23 24 25 26 27 28 29 30 31 32 33 34 35 36 37 38 39 40 41 42 43 44 45 46 47 48 49 50
000
ASUS44 KMEG 231900
RWRTN
TENNESSEE HOURLY STATE WEATHER ROUNDUP
NATIONAL WEATHER SERVICE MEMPHIS TN
200 PM CDT WED APR 23 2014

TNZ002-004-019-021-049-052-054-088>092-232000-
WEST TENNESSEE

CITY           SKY/WX    TMP DP  RH WIND       PRES   REMARKS
MEMPHIS INTL   SUNNY     75  37  25 VRB5      30.00F
NWS MEMPHIS      N/A     75 N/A N/A MISG        N/A
JACKSON        SUNNY     73  35  25 NE7       30.01F
DYERSBURG      SUNNY     70  36  28 N8        30.03F
UNION CITY     SUNNY     66  36  32 E9        30.03F
LEXINGTON      SUNNY     70  34  26 VRB3      30.00F
$$

TNZ008-025-027-028-033-062-065-066-232000-
NORTH MIDDLE TENNESSEE

CITY           SKY/WX    TMP DP  RH WIND       PRES   REMARKS
NASHVILLE      MOSUNNY   68  33  27 NE8       30.04F
CLARKSVILLE    SUNNY     65  39  38 NE7       30.05F
COOKEVILLE     SUNNY     66  34  30 NE8       30.02F
CROSSVILLE     SUNNY     63  27  25 VRB3      30.01F
$$

TNZ061-075-076-078-094-096-097-232000-
SOUTH MIDDLE TENNESSEE

CITY           SKY/WX    TMP DP  RH WIND       PRES   REMARKS
TULLAHOMA      SUNNY     66  36  32 NE10      30.01F
WINCHESTER     SUNNY     66  37  34 NW8       30.00F
MCMINNVILLE    SUNNY     64  36  34 VRB5      30.01F
COLUMBIA       SUNNY     68  48  49 N7        30.01F
$$

TNZ017-018-042-046-047-232000-
NORTHEAST TENNESSEE

CITY           SKY/WX    TMP DP  RH WIND       PRES   REMARKS
TRI CITIES     SUNNY     67  19  16 W10       29.98S
ELIZABETHTON   CLEAR     63  25  23 CALM      29.98R
$$

TNZ012-013-036-069-073-074-232000-
CENTRAL EAST TENNESSEE

CITY           SKY/WX    TMP DP  RH WIND       PRES   REMARKS
KNOXVILLE      MOSUNNY   66  31  27 E7        29.99F
OAK RIDGE      SUNNY     68  29  23 CALM      30.00F
$$

TNZ083-085-099-232000-
SOUTHEAST TENNESSEE

CITY           SKY/WX    TMP DP  RH WIND       PRES   REMARKS
CHATTANOOGA    MOSUNNY   72  35  25 NE9G23    29.97F
$$

SKY/WX REPORTED AS FAIR MEANS FEW OR NO CLOUDS BELOW
12 THOUSAND FEET.




USA.gov is the U.S. government's official web portal to all federal, state and local government web resources and services.